STARLINK-3858 (52553 NORAD) Tracking and Keplerian Element Data

This shows tracking and keplerian element data for the satellite.

Feedback or suggestion? Click here.




ElementValue
Catalog52553
NameSTARLINK-3858
Epoch Orbit130
Epoch Day167.08334491
Epoch Year2022
RAAN130.4272
Inclination53.2172
Eccentricity0.0001577
Argument of Perigee61.4209
Mean Anonmoly28.8758
Mean Motion15.49891079
Decay Rate-0.00016216
L11 52553U 22051W 22167.08334491 -.00016216 00000+0 -27827-3 0 9996
L22 52553 53.2172 130.4272 0001577 61.4209 28.8758 15.49891079 1308

Live tracking and technical data element details for STARLINK-3858 (NORAD 52553). STARLINK-3858 can be tracked NOW for your location showing map with azimuth and elevation plus other details from your city location.

Track the satellite on the map from your city or location and see movement details for azimuth, elevation, latitude, longitude, range, height, and movement on the map or in text.







IsCatalogInMostPopularTable: catalog: 52553, numindb: 3
Update: records affected: 1



GetName: 52553 STARLINK-3858

Hit Count: updated at: Mon, 27 Jun 2022 05:04:56 GMT